User: anonymous   Login
Location: �mondeville
(49.4591°N, 1.3431°W)
Time: 03:40:10
(UTC+00:00)
Language:

Meteor 1-4 Rocket - Orbit

View from above orbital plane
View from above orbital plane
View from above satellite
View from above satellite

Ground track
Ground track

The orbit data is extracted from the following two-line orbital elements,

1  4394U 70037B   19341.81035599  .00000679  00000-0  22110-4 0  9997
2  4394  81.2429  32.4486 0037840 274.5146  85.1768 15.29671914702847
Epoch (UTC): 07 December 2019 19:26:54
Eccentricity: 0.0037840
inclination: 81.2429°
perigee height: 451 km
apogee height: 503 km
right ascension of ascending node: 32.4486°
argument of perigee: 274.5146°
revolutions per day: 15.29671914
mean anomaly at epoch: 85.1768°
orbit number at epoch: 70284

The dashed part of the orbit path shows where the satellite is in the earth's shadow,  

DLR